Find Starlink 32815

NORAD ID: 62956 Int'l Des: 2025-029 Owner: SPXS Country: US Constellation: starlink operational
LEOCIRCULAR

Current View

Loading 3D Globe...

About Starlink 32815

Starlink 32815 (NORAD 62956) is a starlink constellation satellite (v2 mini) launched Feb 11, 2025 by SPXS of US. It operates in LEO, CIRCULAR orbit with a mass of 730.00 kg.

About Starlink 32815

Description loading...

Upcoming Passes

Passes for default location (London). Set your location on the main map for personalized predictions.

Altitude History

Loading altitude history...

Two-Line Element Set

1 62956U 25029J 26170.13867941 .00032368 00000-0 96480-3 0 9993
2 62956 53.1599 118.1369 0001405 95.9800 264.1362 15.34406373 76904
Epoch: Jun 19, 2026 • Age: 30 hours

Current Status

Altitude 468.1 km
Velocity 7.64 km/s
Sub-Earth Point 53.24°N, 148.28°E
Launch Date Feb 11, 2025
Age 1.3 years
Type internet

Technical Details

Classification Payload
Mass 730.00 kg
Dry Mass 700.00 kg
Total Mass 730.00 kg
Length 0.30 m
Diameter 4.10 m
Span 29.00 m
Shape Box + pan
Manufacturer SPXS
Bus Type Starlink V2M
Phase Status In Orbit
Owner/State SPXS/US

Most Searched